(°F)
42°
41°
41°
42°
46°
50°
55°
(°F)
39°
39°
39°
40°
43°
48°
53°
NW
NW
NW
NW
NW
NNW
NNW
(mph)
1-6
1-5
1-5
1-5
1-6
2-6
3-7
(in)
0
0
0
0
0
0
0
(%)
1
1
0
0
0
0
0

Sun elevation

/ -32.4°
sun-icon
UV 5
07:46
18:53
Waning gibbous moon (212°)
20:44
10:33

METAR for Blairsville (KDZJ)

Time Conditions Temperature/
Dewpoint
Wind Visibility Weather Clouds Pressure Change Raw
IFR 42.44°F / 42.26°F variable 0kt 2000m Mist Vertical Visibility of 0ft.
Overcast 1600ft
- KDZJ 230855Z AUTO 00000KT 1 1/4SM BR SCT002 OVC016 06/06 A3007 RMK AO2 T00580057
LIFR 41.54°F / 41.36°F variable 0kt 400m Fog Vertical Visibility of 0ft. - KDZJ 230835Z AUTO 00000KT 1/4SM FG OVC002 05/05 A3006 RMK AO2 T00530052
MVFR 42.44°F / 42.26°F variable 0kt 8000m Mist Vertical Visibility of 0ft. - KDZJ 230815Z AUTO 00000KT 5SM BR SCT002 06/06 A3007 RMK AO2 T00580057
MVFR 42.44°F / 42.44°F variable 0kt 6400m Mist Vertical Visibility of 0ft. - KDZJ 230755Z AUTO 00000KT 4SM BR SCT002 06/06 A3007 RMK AO2 T00580058
MVFR 43.34°F / 43.16°F variable 0kt 4800m Mist Vertical Visibility of 0ft. - KDZJ 230735Z AUTO 00000KT 3SM BR SCT002 06/06 A3008 RMK AO2 T00630062
MVFR 43.52°F / 43.52°F variable 0kt 8000m Mist Vertical Visibility of 0ft. - KDZJ 230715Z AUTO 00000KT 5SM BR CLR 06/06 A3007 RMK AO2 T00640064
MVFR 44.24°F / 44.06°F variable 0kt 8000m Mist Vertical Visibility of 0ft. - KDZJ 230655Z AUTO 00000KT 5SM BR CLR 07/07 A3007 RMK AO2 T00680067
VFR 44.78°F / 44.42°F variable 0kt >10km Mist Vertical Visibility of 0ft. - KDZJ 230635Z AUTO 00000KT 7SM BR CLR 07/07 A3007 RMK AO2 T00710069
VFR 44.96°F / 44.6°F variable 0kt >10km - Clear - KDZJ 230615Z AUTO 00000KT 7SM CLR 07/07 A3006 RMK AO2 LTG DSNT SE T00720070
VFR 45.32°F / 44.78°F variable 0kt >10km - Clear - KDZJ 230555Z AUTO 00000KT 7SM CLR 07/07 A3006 RMK AO2 T00740071 10131 20073
VFR 46.22°F / 45.5°F variable 0kt >10km - Clear - KDZJ 230535Z AUTO 00000KT 10SM CLR 08/08 A3006 RMK AO2 T00790075
VFR 46.58°F / 45.5°F variable 0kt >10km - Clear - KDZJ 230515Z AUTO 00000KT 10SM CLR 08/07 A3006 RMK AO2 T00810075
VFR 48.2°F / 46.4°F variable 0kt >10km - Clear - KDZJ 230455Z AUTO 00000KT 10SM CLR 09/08 A3007 RMK AO2 T00900080
VFR 48.56°F / 46.04°F variable 0kt >10km - Clear - KDZJ 230435Z AUTO 00000KT 10SM CLR 09/08 A3008 RMK AO2 T00920078
VFR 50.36°F / 46.4°F variable 0kt >10km - Scattered Clouds 1500ft - KDZJ 230415Z AUTO 00000KT 10SM SCT015 10/08 A3008 RMK AO2 T01020080
MVFR 51.26°F / 46.94°F 330º 3kt >10km - Overcast 1500ft - KDZJ 230355Z AUTO 33003KT 10SM OVC015 11/08 A3009 RMK AO2 T01070083
MVFR 51.44°F / 47.3°F 360º 3kt >10km - Overcast 1500ft - KDZJ 230335Z AUTO 36003KT 10SM OVC015 11/08 A3009 RMK AO2 T01080085
MVFR 51.8°F / 47.66°F variable 0kt >10km - Overcast 1300ft - KDZJ 230315Z AUTO 00000KT 10SM OVC013 11/09 A3009 RMK AO2 T01100087
MVFR 52.16°F / 48.38°F 320º 3kt >10km - Broken Clouds 1300ft
Overcast 2600ft
- KDZJ 230255Z AUTO 32003KT 10SM BKN013 OVC026 11/09 A3009 RMK AO2 T01120091
MVFR 52.34°F / 48.92°F 350º 4kt >10km - Scattered Clouds 1100ft
Overcast 2800ft
- KDZJ 230235Z AUTO 35004KT 10SM SCT011 OVC028 11/09 A3009 RMK AO2 T01130094
MVFR 52.7°F / 49.64°F variable 0kt >10km - Broken Clouds 1100ft
Overcast 2800ft
- KDZJ 230215Z AUTO 00000KT 10SM BKN011 OVC028 11/10 A3008 RMK AO2 T01150098
MVFR 53.06°F / 50.18°F 320º 4kt >10km - Scattered Clouds 1100ft
Overcast 2600ft
- KDZJ 230155Z AUTO 32004KT 10SM SCT011 OVC026 12/10 A3008 RMK AO2 T01170101
MVFR 53.24°F / 50.36°F 320º 5kt >10km - Overcast 2400ft - KDZJ 230135Z AUTO 32005KT 10SM OVC024 12/10 A3008 RMK AO2 T01180102
MVFR 52.34°F / 50.54°F variable 0kt >10km - Broken Clouds 2400ft - KDZJ 230115Z AUTO 00000KT 10SM BKN024 11/10 A3007 RMK AO2 T01130103

IFR

42.44°F / 42.26°F

[More]
Wind variable 0kt
Visibility 2000m
Weather Mist
Clouds Vertical Visibility of 0ft.
Overcast 1600ft
Pressure
Change -
Raw KDZJ 230855Z AUTO 00000KT 1 1/4SM BR SCT002 OVC016 06/06 A3007 RMK AO2 T00580057

LIFR

41.54°F / 41.36°F

[More]
Wind variable 0kt
Visibility 400m
Weather Fog
Clouds Vertical Visibility of 0ft.
Pressure
Change -
Raw KDZJ 230835Z AUTO 00000KT 1/4SM FG OVC002 05/05 A3006 RMK AO2 T00530052

MVFR

42.44°F / 42.26°F

[More]
Wind variable 0kt
Visibility 8000m
Weather Mist
Clouds Vertical Visibility of 0ft.
Pressure
Change -
Raw KDZJ 230815Z AUTO 00000KT 5SM BR SCT002 06/06 A3007 RMK AO2 T00580057

MVFR

42.44°F / 42.44°F

[More]
Wind variable 0kt
Visibility 6400m
Weather Mist
Clouds Vertical Visibility of 0ft.
Pressure
Change -
Raw KDZJ 230755Z AUTO 00000KT 4SM BR SCT002 06/06 A3007 RMK AO2 T00580058

MVFR

43.34°F / 43.16°F

[More]
Wind variable 0kt
Visibility 4800m
Weather Mist
Clouds Vertical Visibility of 0ft.
Pressure
Change -
Raw KDZJ 230735Z AUTO 00000KT 3SM BR SCT002 06/06 A3008 RMK AO2 T00630062

MVFR

43.52°F / 43.52°F

[More]
Wind variable 0kt
Visibility 8000m
Weather Mist
Clouds Vertical Visibility of 0ft.
Pressure
Change -
Raw KDZJ 230715Z AUTO 00000KT 5SM BR CLR 06/06 A3007 RMK AO2 T00640064

MVFR

44.24°F / 44.06°F

[More]
Wind variable 0kt
Visibility 8000m
Weather Mist
Clouds Vertical Visibility of 0ft.
Pressure
Change -
Raw KDZJ 230655Z AUTO 00000KT 5SM BR CLR 07/07 A3007 RMK AO2 T00680067

VFR

44.78°F / 44.42°F

[More]
Wind variable 0kt
Visibility >10km
Weather Mist
Clouds Vertical Visibility of 0ft.
Pressure
Change -
Raw KDZJ 230635Z AUTO 00000KT 7SM BR CLR 07/07 A3007 RMK AO2 T00710069

VFR

44.96°F / 44.6°F

[More]
Wind variable 0kt
Visibility >10km
Weather -
Clouds Clear
Pressure
Change -
Raw KDZJ 230615Z AUTO 00000KT 7SM CLR 07/07 A3006 RMK AO2 LTG DSNT SE T00720070

VFR

45.32°F / 44.78°F

[More]
Wind variable 0kt
Visibility >10km
Weather -
Clouds Clear
Pressure
Change -
Raw KDZJ 230555Z AUTO 00000KT 7SM CLR 07/07 A3006 RMK AO2 T00740071 10131 20073

VFR

46.22°F / 45.5°F

[More]
Wind variable 0kt
Visibility >10km
Weather -
Clouds Clear
Pressure
Change -
Raw KDZJ 230535Z AUTO 00000KT 10SM CLR 08/08 A3006 RMK AO2 T00790075

VFR

46.58°F / 45.5°F

[More]
Wind variable 0kt
Visibility >10km
Weather -
Clouds Clear
Pressure
Change -
Raw KDZJ 230515Z AUTO 00000KT 10SM CLR 08/07 A3006 RMK AO2 T00810075

VFR

48.2°F / 46.4°F

[More]
Wind variable 0kt
Visibility >10km
Weather -
Clouds Clear
Pressure
Change -
Raw KDZJ 230455Z AUTO 00000KT 10SM CLR 09/08 A3007 RMK AO2 T00900080

VFR

48.56°F / 46.04°F

[More]
Wind variable 0kt
Visibility >10km
Weather -
Clouds Clear
Pressure
Change -
Raw KDZJ 230435Z AUTO 00000KT 10SM CLR 09/08 A3008 RMK AO2 T00920078

VFR

50.36°F / 46.4°F

[More]
Wind variable 0kt
Visibility >10km
Weather -
Clouds Scattered Clouds 1500ft
Pressure
Change -
Raw KDZJ 230415Z AUTO 00000KT 10SM SCT015 10/08 A3008 RMK AO2 T01020080

MVFR

51.26°F / 46.94°F

[More]
Wind 330º 3kt
Visibility >10km
Weather -
Clouds Overcast 1500ft
Pressure
Change -
Raw KDZJ 230355Z AUTO 33003KT 10SM OVC015 11/08 A3009 RMK AO2 T01070083

MVFR

51.44°F / 47.3°F

[More]
Wind 360º 3kt
Visibility >10km
Weather -
Clouds Overcast 1500ft
Pressure
Change -
Raw KDZJ 230335Z AUTO 36003KT 10SM OVC015 11/08 A3009 RMK AO2 T01080085

MVFR

51.8°F / 47.66°F

[More]
Wind variable 0kt
Visibility >10km
Weather -
Clouds Overcast 1300ft
Pressure
Change -
Raw KDZJ 230315Z AUTO 00000KT 10SM OVC013 11/09 A3009 RMK AO2 T01100087

MVFR

52.16°F / 48.38°F

[More]
Wind 320º 3kt
Visibility >10km
Weather -
Clouds Broken Clouds 1300ft
Overcast 2600ft
Pressure
Change -
Raw KDZJ 230255Z AUTO 32003KT 10SM BKN013 OVC026 11/09 A3009 RMK AO2 T01120091

MVFR

52.34°F / 48.92°F

[More]
Wind 350º 4kt
Visibility >10km
Weather -
Clouds Scattered Clouds 1100ft
Overcast 2800ft
Pressure
Change -
Raw KDZJ 230235Z AUTO 35004KT 10SM SCT011 OVC028 11/09 A3009 RMK AO2 T01130094

MVFR

52.7°F / 49.64°F

[More]
Wind variable 0kt
Visibility >10km
Weather -
Clouds Broken Clouds 1100ft
Overcast 2800ft
Pressure
Change -
Raw KDZJ 230215Z AUTO 00000KT 10SM BKN011 OVC028 11/10 A3008 RMK AO2 T01150098

MVFR

53.06°F / 50.18°F

[More]
Wind 320º 4kt
Visibility >10km
Weather -
Clouds Scattered Clouds 1100ft
Overcast 2600ft
Pressure
Change -
Raw KDZJ 230155Z AUTO 32004KT 10SM SCT011 OVC026 12/10 A3008 RMK AO2 T01170101

MVFR

53.24°F / 50.36°F

[More]
Wind 320º 5kt
Visibility >10km
Weather -
Clouds Overcast 2400ft
Pressure
Change -
Raw KDZJ 230135Z AUTO 32005KT 10SM OVC024 12/10 A3008 RMK AO2 T01180102

MVFR

52.34°F / 50.54°F

[More]
Wind variable 0kt
Visibility >10km
Weather -
Clouds Broken Clouds 2400ft
Pressure
Change -
Raw KDZJ 230115Z AUTO 00000KT 10SM BKN024 11/10 A3007 RMK AO2 T01130103

Current satellite images for Blairsville, United States of America

The location marker is placed on Blairsville. [More]

The real-time satellite image combines visible light during daytime with infrared radiation during nighttime. At night, the image is not dark as infrared radiation can detect temperature differences. Unfortunately, low clouds and fog are difficult to distinguish from ground temperatures and thus can be almost invisible during the night. Meteosat satellite images for Europe are updated in real-time every 5 minutes. GOES-16/GOES-17 (North & South America) and Himawari (Asia) images update every 10 minutes.

Radar and precipitation nowcast for Blairsville

Drizzle
Light
Moderate
Heavy
Very Heavy
Hail

The location marker is placed on Blairsville. This animation shows the precipitation radar for the last hour, as well as a 1h forecast. Drizzle or light snow fall might be invisible for the radar. Precipitation intensity is colour coded, ranging from light blue to orange.